Regional Weather Roundup
Issued by NWS Spokane, WA

Home | Current Version | Previous Version | Text Only | Print | Product List | Glossary On
Versions: 1 2 3 4 5 6 7 8 9 10 11 12 13 14 15 16 17 18 19 20 21 22 23 24 25 26 27 28 29 30 31 32 33 34 35 36 37 38 39 40 41 42 43 44 45 46 47 48 49 50
000
NZUS01 KOTX 291710
RWROTX
EASTERN WASHINGTON/NORTHERN IDAHO ROUNDUP
NATIONAL WEATHER SERVICE, SPOKANE WA
1000 AM PDT TUE JUL 29 2014

Note: "fair" indicated few or no clouds below 12,000 feet with no
significant weather and/or obstructions to visibility.

...NORTHEAST WASHINGTON AND NORTHERN IDAHO PANHANDLE...

CITY           SKY/WX    TMP DP  RH WIND       PRES   REMARKS
SPOKANE INTL   MOSUNNY   82  47  29 NE3       30.11S
SPOKANE DOWNTO SUNNY     84  51  31 VRB3      30.09S
COEUR D ALENE  SUNNY     81  54  39 E12       30.10F
DEER PARK      SUNNY     84  51  31 E3        30.11S
SANDPOINT      SUNNY     79  50  36 N9        30.12F

...SOUTHEAST WASHINGTON AND SOUTHERN IDAHO PANHANDLE...

CITY           SKY/WX    TMP DP  RH WIND       PRES   REMARKS
WALLA WALLA    SUNNY     88  50  27 W12       30.05S
PULLMAN/MOSCOW SUNNY     85  46  25 W5        30.13S
LEWISTON       SUNNY     85  49  28 CALM      30.06S
LOWELL           N/A     76  55  48 CALM      30.09F

...COLUMBIA BASIN...

CITY           SKY/WX    TMP DP  RH WIND       PRES   REMARKS
EPHRATA        SUNNY     90  42  18 CALM      30.03S
MOSES LAKE     SUNNY     89  41  18 VRB6      30.03F
TRI CITIES     SUNNY     86  57  37 N3        30.00F
HERMISTON      SUNNY     86  55  34 VRB5      30.01F
PENDLETON      SUNNY     86  45  23 VRB3      30.05F

...EAST SLOPES CASCADES...

CITY           SKY/WX    TMP DP  RH WIND       PRES   REMARKS
THE DALLES     SUNNY     82  57  42 NW9       30.01F
YAKIMA         SUNNY     86  52  30 W7        30.03F
ELLENSBURG     SUNNY     80  57  45 SE5       30.08F
WENATCHEE      SUNNY     84  50  30 W12       30.04F
OMAK           SUNNY     87  47  24 N12G20    30.04F

...SOUTHERN BRITISH COLUMBIA...

CITY           SKY/WX    TMP DP  RH WIND       PRES   REMARKS
PENTICTON      SUNNY     79  52  38 N13       30.08S
CASTLEGAR      MOSUNNY   75  52  43 N5        30.11F
CRANBROOK      MOSUNNY   77  43  29 VRB2      30.20F

...WESTERN MONTANA...

CITY           SKY/WX    TMP DP  RH WIND       PRES   REMARKS
MISSOULA       SUNNY     77  43  29 CALM      30.19F

...NEIGHBORING CITIES...

CITY           SKY/WX    TMP DP  RH WIND       PRES   REMARKS
SEATTLE        SUNNY     71  55  56 W5        30.16S
CALGARY        MOSUNNY   79  52  38 VRB2      30.20S



USA.gov is the U.S. government's official web portal to all federal, state and local government web resources and services.